WX3I Weather Reports


time (UTC)temp
F
wind
direction
speed
knots
gust
knots
rain 1hr
in
rain 24hr
in
rain mn
in
humidity
%
barometer
mb
20260504204505 71 162 1.7 7.0 0.00 0.00 0.00 39 1011.5
20260504203504 71 179 1.7 7.0 0.00 0.00 0.00 38 1011.6
20260504203004 71 212 1.7 6.1 0.00 0.00 0.00 37 1011.6
20260504202504 71 178 1.7 5.2 0.00 0.00 0.00 38 1011.7
20260504202004 71 207 1.7 6.1 0.00 0.00 0.00 38 1011.7
20260504201504 71 211 1.7 8.7 0.00 0.00 0.00 38 1011.7
20260504201004 71 148 1.7 7.8 0.00 0.00 0.00 37 1011.7
20260504200505 71 258 1.7 6.1 0.00 0.00 0.00 38 1011.7
20260504195504 71 179 1.7 6.1 0.00 0.00 0.00 38 1011.9
20260504195004 71 258 2.6 7.0 0.00 0.00 0.00 37 1011.9
20260504194504 71 193 2.6 6.1 0.00 0.00 0.00 37 1011.8
20260504194004 70 289 1.7 7.0 0.00 0.00 0.00 36 1011.9
20260504193504 70 200 1.7 6.1 0.00 0.00 0.00 38 1012.0
20260504193004 70 198 3.5 7.8 0.00 0.00 0.00 37 1012.0
20260504192503 70 205 1.7 7.0 0.00 0.00 0.00 39 1012.1
20260504192004 70 200 2.6 8.7 0.00 0.00 0.00 38 1012.1
20260504191504 70 63 2.6 7.0 0.00 0.00 0.00 39 1012.2
20260504191004 70 228 3.5 7.8 0.00 0.00 0.00 39 1012.3
20260504190504 70 208 3.5 7.0 0.00 0.00 0.00 38 1012.2
20260504190004 70 345 3.5 7.8 0.00 0.00 0.00 38 1012.3
20260504185004 70 209 3.5 7.8 0.00 0.00 0.00 38 1012.4
20260504184504 70 178 2.6 7.0 0.00 0.00 0.00 37 1012.6
20260504184004 69 212 0.9 6.1 0.00 0.00 0.00 39 1012.7
20260504183504 68 209 6.1 10.4 0.00 0.00 0.00 38 1012.6
20260504183005 68 216 4.3 7.8 0.00 0.00 0.00 38 1012.7
20260504182504 68 244 5.2 8.7 0.00 0.00 0.00 37 1012.7
20260504182004 69 205 2.6 8.7 0.00 0.00 0.00 37 1012.9
20260504181504 69 230 1.7 6.1 0.00 0.00 0.00 37 1012.9
20260504180504 69 187 2.6 12.2 0.00 0.00 0.00 39 1013.1
20260504180004 69 208 2.6 6.1 0.00 0.00 0.00 37 1013.2
20260504175004 69 320 1.7 6.1 0.00 0.00 0.00 38 1013.2
20260504174504 69 348 0.9 5.2 0.00 0.00 0.00 39 1013.3
20260504174004 69 188 3.5 7.8 0.00 0.00 0.00 38 1013.4
20260504173504 69 254 1.7 7.0 0.00 0.00 0.00 39 1013.6
20260504173004 69 94 1.7 5.2 0.00 0.00 0.00 38 1013.5
20260504172004 68 324 2.6 6.1 0.00 0.00 0.00 37 1013.5
20260504171504 68 212 4.3 7.8 0.00 0.00 0.00 38 1013.6
20260504171004 67 182 1.7 7.8 0.00 0.00 0.00 38 1013.8
20260504170504 68 225 2.6 11.3 0.00 0.00 0.00 39 1013.9
20260504151004 65 212 2.6 6.1 0.00 0.00 0.00 43 1015.1
20260504150504 64 310 3.5 6.1 0.00 0.00 0.00 43 1015.2
20260504141004 60 210 4.3 7.8 0.00 0.00 0.00 52 1015.2
20260504140504 60 194 3.5 6.1 0.00 0.00 0.00 53 1015.2
20260504130504 56 215 4.3 7.0 0.00 0.00 0.00 62 1015.6
20260504110504 49 209 1.7 7.0 0.00 0.00 0.00 66 1016.0
20260504100504 46 180 1.7 5.2 0.00 0.00 0.00 60 1015.9
20260504082004 46 221 0.0 0.9 0.00 0.00 0.00 56 1015.9
20260504081504 47 193 0.0 2.6 0.00 0.00 0.00 55 1015.9
20260504081004 47 173 0.0 1.7 0.00 0.00 0.00 54 1015.9
20260504080504 47 185 0.0 1.7 0.00 0.00 0.00 53 1015.9
20260504050504 48 208 0.0 0.0 0.00 0.00 0.00 52 1015.9
20260504050004 48 208 0.0 0.9 0.00 0.00 0.00 52 1015.9
20260504045504 48 196 0.0 0.0 0.00 0.00 0.00 51 1015.9
20260504045004 48 225 0.0 0.0 0.00 0.00 0.00 52 1015.9
20260504044504 48 229 0.0 0.0 0.00 0.00 0.00 52 1015.8
20260504043504 48 230 0.0 0.0 0.00 0.00 0.00 52 1015.8
20260504043004 48 230 0.0 0.0 0.00 0.00 0.00 52 1015.8
20260504042505 48 230 0.0 0.0 0.00 0.00 0.00 52 1015.7
20260504042004 48 230 0.0 0.0 0.00 0.00 0.00 52 1015.7
20260504041504 48 215 0.0 0.0 0.00 0.00 0.00 53 1015.6
20260504041005 48 207 0.0 0.0 0.00 0.00 0.00 51 1015.5
20260504040505 48 207 0.0 0.0 0.00 0.00 0.00 52 1015.5
20260504040004 48 207 0.0 0.0 0.00 0.00 0.00 52 1015.5
20260504035504 48 207 0.0 0.0 0.00 0.00 0.00 51 1015.5
20260504035004 48 207 0.0 0.0 0.00 0.00 0.00 51 1015.4
20260504034504 48 207 0.0 0.0 0.00 0.00 0.00 51 1015.4
20260504034004 49 207 0.0 0.9 0.00 0.00 0.00 51 1015.4
20260504033504 49 217 0.0 1.7 0.00 0.00 0.00 51 1015.3
20260504033004 49 233 0.0 1.7 0.00 0.00 0.00 50 1015.3
20260504032504 49 89 0.0 0.9 0.00 0.00 0.00 51 1015.3
20260504032004 49 228 0.0 0.0 0.00 0.00 0.00 50 1015.4
20260504031004 49 306 0.0 0.9 0.00 0.00 0.00 50 1015.3
20260504030505 49 305 0.0 0.9 0.00 0.00 0.00 50 1015.2
20260504030004 49 221 0.0 0.9 0.00 0.00 0.00 49 1015.3
20260504025504 50 229 0.0 0.9 0.00 0.00 0.00 49 1015.2
20260504025004 49 230 0.9 1.7 0.00 0.00 0.00 49 1015.2
20260504024504 49 232 0.0 0.9 0.00 0.00 0.00 49 1015.3
20260504024004 49 213 0.0 0.9 0.00 0.00 0.00 49 1015.4
20260504023004 49 296 0.0 0.9 0.00 0.00 0.00 50 1015.3
20260504022004 50 247 0.0 0.9 0.00 0.00 0.00 49 1015.3
20260504021504 50 259 0.0 0.0 0.00 0.00 0.00 48 1015.4
20260504021004 50 259 0.0 1.7 0.00 0.00 0.00 48 1015.4
20260504020504 50 235 0.0 0.9 0.00 0.00 0.00 48 1015.3
20260504020004 50 217 0.0 1.7 0.00 0.00 0.00 48 1015.3
20260504015504 50 235 0.0 0.0 0.00 0.00 0.00 47 1015.2
20260504015004 50 235 0.0 0.0 0.00 0.00 0.00 47 1015.2
20260504014507 50 235 0.0 1.7 0.00 0.00 0.00 46 1015.1
20260504014004 50 264 0.0 1.7 0.00 0.00 0.00 47 1015.2
20260504013504 51 257 0.0 0.9 0.00 0.00 0.00 47 1015.1
20260504012504 51 22 0.0 0.9 0.00 0.00 0.00 46 1015.1
20260504011504 52 37 0.0 0.9 0.00 0.00 0.00 45 1015.0
20260504011004 52 37 0.0 0.9 0.00 0.00 0.00 44 1014.9
20260504010504 52 41 0.0 0.0 0.00 0.00 0.00 44 1014.8
20260504010004 52 41 0.0 0.0 0.00 0.00 0.00 44 1014.8
20260504005504 52 341 0.0 1.7 0.00 0.00 0.00 45 1014.7
20260504004504 52 304 0.0 0.9 0.00 0.00 0.00 43 1014.6
20260504004004 53 341 0.0 0.9 0.00 0.00 0.00 43 1014.6
20260504003504 53 329 0.0 0.0 0.00 0.00 0.00 42 1014.5
20260504003004 53 329 0.0 0.9 0.00 0.00 0.00 41 1014.5
20260504002004 54 48 0.0 0.0 0.00 0.00 0.00 40 1014.3
20260504001504 55 48 0.0 0.0 0.00 0.00 0.00 39 1014.3
20260504001004 55 48 0.0 0.0 0.00 0.00 0.00 39 1014.2
20260504000505 55 47 0.9 2.6 0.00 0.00 0.00 38 1014.2
20260504000004 56 47 0.0 2.6 0.00 0.00 0.00 38 1014.1
20260503235504 56 322 0.0 2.6 0.00 0.00 0.00 37 1014.1
20260503235005 56 358 0.9 2.6 0.00 0.00 0.00 38 1014.0
20260503234504 57 18 1.7 7.0 0.00 0.00 0.00 36 1014.0
20260503234004 57 15 1.7 2.6 0.00 0.00 0.00 35 1013.9
20260503233504 57 15 0.0 4.3 0.00 0.00 0.00 36 1013.9
20260503233005 57 330 0.9 5.2 0.00 0.00 0.00 35 1013.9
20260503232504 57 357 0.9 5.2 0.00 0.00 0.00 35 1013.8
20260503232004 57 4 0.0 5.2 0.00 0.00 0.00 37 1013.9
20260503230504 58 61 1.7 4.3 0.00 0.00 0.00 34 1013.8
20260503230004 58 12 0.9 4.3 0.00 0.00 0.00 34 1013.7
20260503225504 58 324 1.7 4.3 0.00 0.00 0.00 34 1013.7
20260503225004 58 2 1.7 4.3 0.00 0.00 0.00 34 1013.7
20260503224504 58 351 1.7 5.2 0.00 0.00 0.00 34 1013.7
20260503224004 58 0 2.6 7.0 0.00 0.00 0.00 34 1013.7
20260503223504 58 4 0.9 7.0 0.00 0.00 0.00 34 1013.8
20260503223004 58 11 0.9 7.8 0.00 0.00 0.00 34 1013.7
20260503222504 58 359 1.7 7.8 0.00 0.00 0.00 33 1013.7
20260503222004 59 351 1.7 6.1 0.00 0.00 0.00 33 1013.8
20260503221504 59 356 2.6 6.1 0.00 0.00 0.00 32 1013.6
20260503221004 59 348 2.6 7.8 0.00 0.00 0.00 32 1013.6
20260503220004 59 332 4.3 10.4 0.00 0.00 0.00 31 1013.6
20260503215504 59 355 5.2 10.4 0.00 0.00 0.00 31 1013.7
20260503215004 59 316 3.5 7.0 0.00 0.00 0.00 32 1013.5
20260503214504 59 349 2.6 5.2 0.00 0.00 0.00 31 1013.6
20260503214003 59 333 2.6 6.1 0.00 0.00 0.00 33 1013.6
20260503213504 59 6 1.7 7.8 0.00 0.00 0.00 33 1013.6
20260503212504 59 17 3.5 6.1 0.00 0.00 0.00 31 1013.5
20260503212004 59 352 2.6 7.0 0.00 0.00 0.00 32 1013.5
20260503211504 58 358 3.5 8.7 0.00 0.00 0.00 34 1013.6
20260503211004 58 348 4.3 10.4 0.00 0.00 0.00 32 1013.5
20260503210504 58 5 4.3 8.7 0.00 0.00 0.00 31 1013.5
20260503210005 59 2 4.3 8.7 0.00 0.00 0.00 33 1013.5
20260503205504 58 353 2.6 7.0 0.00 0.00 0.00 34 1013.5
20260503205005 58 354 3.5 7.0 0.00 0.00 0.00 33 1013.5